Location: Most
(50.5133°N, 13.6207°E)
Time: 23:39:50
(UTC+02:00)

ISS - Visible Passes

Search period start: 25 September 2018 00:00
Search period end: 05 October 2018 00:00
Orbit: 403 x 408 km, 51.6° (Epoch: 26 September)

Date Brightness Start Highest point End Pass type
(mag) Time Alt. Az. Time Alt. Az. Time Alt. Az.
25 Sep -2.2 19:27:59 10° SSW 19:30:31 21° SE 19:33:05 10° E visible
25 Sep -3.4 21:03:22 10° WSW 21:06:06 56° SW 21:06:06 56° SW visible
26 Sep -3.6 20:11:35 10° SW 20:14:49 54° SSE 20:16:23 26° E visible
26 Sep -1.2 21:48:02 10° W 21:49:04 19° W 21:49:04 19° W visible
27 Sep -3.8 20:56:04 10° W 20:59:15 78° NW 20:59:15 78° NW visible
28 Sep -3.9 20:04:09 10° WSW 20:07:27 84° SSE 20:09:23 23° ENE visible
28 Sep -1.3 21:40:45 10° W 21:42:03 22° WNW 21:42:03 22° WNW visible
29 Sep -3.7 20:48:46 10° W 20:52:05 70° N 20:52:07 70° N visible
30 Sep -3.7 19:56:47 10° W 20:00:05 76° N 20:02:08 21° ENE visible
30 Sep -1.4 21:33:24 10° WNW 21:34:48 23° WNW 21:34:48 23° WNW visible
01 Oct -3.8 20:41:26 10° W 20:44:44 74° N 20:44:47 73° NNE visible
02 Oct -3.7 19:49:25 10° W 19:52:43 70° N 19:54:46 21° E visible
02 Oct -1.5 21:25:59 10° WNW 21:27:26 24° W 21:27:26 24° W visible
03 Oct -4.0 20:33:59 10° WNW 20:37:18 89° S 20:37:24 84° ESE visible
04 Oct -3.8 19:41:59 10° WNW 19:45:17 77° N 19:47:23 21° E visible
04 Oct -1.5 21:18:34 10° W 21:20:03 23° W 21:20:03 23° W visible
